When you browse on this site, cookies collect data to enhance your experience and personalize the content and advertising you see.
Visit our Privacy Policy to learn more. By continuing to use the site, you agree to this use of cookies and data.
  • In Hungary
  • List of Countries
  • For 7 days
  • Water Temperature
  • Satellite Maps
  • Weather Map
  • News
  • Weather Widgets
  • user-avatar
    Login

    Hourly Weather Kiskunhalas

    Today, 25 June, Tuesday

    Time Temperature Precipitation Wind Pressure Humidity
    00:00 +20°C° 0 mm 2 mps 754 mmHg 92%
    01:00 +20°C° 0 mm 2 mps 754 mmHg 93%
    02:00 +20°C° 0 mm 2 mps 754 mmHg 93%
    03:00 +19°C° 0 mm 2 mps 754 mmHg 94%
    04:00 +19°C° 0 mm 2 mps 754 mmHg 95%
    05:00 +20°C° 0 mm 3 mps 755 mmHg 92%
    06:00 +21°C° 0 mm 3 mps 755 mmHg 89%
    07:00 +22°C° 0 mm 3 mps 755 mmHg 86%
    08:00 +25°C° 0 mm 3 mps 756 mmHg 78%
    09:00 +27°C° 0 mm 3 mps 756 mmHg 70%
    10:00 +29°C° 0 mm 3 mps 756 mmHg 62%
    11:00 +30°C° 0 mm 3 mps 756 mmHg 60%
    12:00 +30°C° 0 mm 4 mps 756 mmHg 58%
    13:00 +31°C° 0 mm 2 mps 756 mmHg 54%
    14:00 +31°C° 0 mm 3 mps 756 mmHg 54%
    15:00 +31°C° 0 mm 3 mps 756 mmHg 54%
    16:00 +31°C° 0 mm 3 mps 756 mmHg 55%
    17:00 +30°C° 0 mm 3 mps 756 mmHg 61%
    18:00 +28°C° 0 mm 2 mps 756 mmHg 67%
    19:00 +27°C° 0 mm 2 mps 756 mmHg 73%
    20:00 +26°C° 0 mm 1 mps 756 mmHg 73%
    21:00 +26°C° 0 mm 1 mps 756 mmHg 73%
    22:00 +25°C° 0 mm 1 mps 756 mmHg 73%
    23:00 +24°C° 0 mm 1 mps 757 mmHg 74%

    Tomorrow, 26 June, Wednesday

    Time Temperature Precipitation Wind Pressure Humidity
    00:00 +24°C° 0 mm 1 mps 757 mmHg 75%
    01:00 +24°C° 0 mm 1 mps 757 mmHg 77%
    02:00 +23°C° 0 mm 1 mps 757 mmHg 79%
    03:00 +23°C° 0 mm 1 mps 756 mmHg 81%
    04:00 +23°C° 0 mm 2 mps 756 mmHg 84%
    05:00 +24°C° 0 mm 2 mps 756 mmHg 80%
    06:00 +25°C° 0 mm 2 mps 757 mmHg 76%
    07:00 +27°C° 0 mm 2 mps 757 mmHg 72%
    08:00 +28°C° 0 mm 2 mps 757 mmHg 67%
    09:00 +29°C° 0 mm 2 mps 757 mmHg 62%
    10:00 +31°C° 0 mm 1 mps 757 mmHg 57%
    11:00 +32°C° 0 mm 1 mps 757 mmHg 53%
    12:00 +33°C° 0 mm 1 mps 757 mmHg 50%
    13:00 +32°C° 0 mm 0 mps 757 mmHg 46%
    14:00 +34°C° 0 mm 1 mps 756 mmHg 45%
    15:00 +34°C° 0 mm 1 mps 756 mmHg 44%
    16:00 +34°C° 0 mm 1 mps 755 mmHg 44%
    17:00 +32°C° 0 mm 1 mps 755 mmHg 51%
    18:00 +31°C° 0 mm 1 mps 755 mmHg 58%
    19:00 +29°C° 0 mm 1 mps 754 mmHg 66%
    20:00 +28°C° 0 mm 1 mps 754 mmHg 68%
    21:00 +27°C° 0 mm 1 mps 755 mmHg 70%
    22:00 +26°C° 0 mm 1 mps 755 mmHg 72%
    23:00 +26°C° 0 mm 1 mps 754 mmHg 73%

    Day after tomorrow, 27 June, Thursday

    Time Temperature Precipitation Wind Pressure Humidity
    00:00 +25°C° 0 mm 1 mps 754 mmHg 74%
    01:00 +25°C° 0 mm 1 mps 754 mmHg 76%
    02:00 +25°C° 0 mm 1 mps 754 mmHg 77%
    03:00 +24°C° 0 mm 1 mps 753 mmHg 79%
    04:00 +24°C° 0 mm 2 mps 753 mmHg 81%
    05:00 +25°C° 0 mm 2 mps 753 mmHg 78%
    06:00 +26°C° 0 mm 2 mps 753 mmHg 75%
    07:00 +28°C° 0 mm 3 mps 753 mmHg 72%
    08:00 +29°C° 0 mm 3 mps 753 mmHg 68%
    09:00 +30°C° 0 mm 4 mps 752 mmHg 64%
    10:00 +33°C° 0 mm 4 mps 752 mmHg 60%
    11:00 +33°C° 0.1 mm 5 mps 752 mmHg 59%
    12:00 +34°C° 0.1 mm 5 mps 751 mmHg 59%
    13:00 +35°C° 0.1 mm 5 mps 751 mmHg 59%
    14:00 +34°C° 0.6 mm 5 mps 750 mmHg 60%
    15:00 +34°C° 0.6 mm 6 mps 750 mmHg 61%
    16:00 +34°C° 0.6 mm 6 mps 749 mmHg 63%
    17:00 +32°C° 0.1 mm 6 mps 749 mmHg 65%
    18:00 +29°C° 0.1 mm 5 mps 749 mmHg 67%
    19:00 +27°C° 0.1 mm 5 mps 749 mmHg 69%
    20:00 +26°C° 0 mm 5 mps 750 mmHg 69%
    21:00 +25°C° 0 mm 5 mps 750 mmHg 68%
    22:00 +23°C° 0 mm 6 mps 751 mmHg 67%
    23:00 +22°C° 0 mm 4 mps 751 mmHg 65%

    28 June, Friday

    Time Temperature Precipitation Wind Pressure Humidity
    00:00 +21°C° 0 mm 3 mps 751 mmHg 63%
    01:00 +20°C° 0 mm 2 mps 752 mmHg 61%
    02:00 +19°C° 0 mm 2 mps 752 mmHg 62%
    03:00 +18°C° 0 mm 2 mps 752 mmHg 63%
    04:00 +17°C° 0 mm 2 mps 752 mmHg 64%
    05:00 +18°C° 0 mm 2 mps 752 mmHg 64%
    06:00 +19°C° 0 mm 2 mps 752 mmHg 64%
    07:00 +20°C° 0 mm 3 mps 752 mmHg 64%
    08:00 +21°C° 0 mm 3 mps 752 mmHg 60%
    09:00 +22°C° 0 mm 3 mps 752 mmHg 56%
    10:00 +24°C° 0 mm 3 mps 752 mmHg 52%
    11:00 +25°C° 0 mm 3 mps 752 mmHg 50%
    12:00 +26°C° 0 mm 3 mps 752 mmHg 48%
    13:00 +27°C° 0 mm 3 mps 752 mmHg 46%
    14:00 +27°C° 0 mm 3 mps 752 mmHg 47%
    15:00 +27°C° 0 mm 3 mps 752 mmHg 49%
    16:00 +27°C° 0 mm 3 mps 751 mmHg 50%
    17:00 +25°C° 0.1 mm 3 mps 752 mmHg 58%
    18:00 +24°C° 0.1 mm 2 mps 752 mmHg 66%
    19:00 +23°C° 0.1 mm 2 mps 752 mmHg 74%
    20:00 +21°C° 0 mm 2 mps 752 mmHg 76%
    21:00 +20°C° 0 mm 2 mps 752 mmHg 78%
    22:00 +19°C° 0 mm 2 mps 753 mmHg 80%
    23:00 +18°C° 0 mm 2 mps 753 mmHg 80%

    29 June, Saturday

    Time Temperature Precipitation Wind Pressure Humidity
    00:00 +18°C° 0 mm 2 mps 753 mmHg 81%
    01:00 +17°C° 0 mm 2 mps 753 mmHg 81%
    02:00 +17°C° 0 mm 2 mps 753 mmHg 79%
    03:00 +17°C° 0 mm 2 mps 753 mmHg 77%
    04:00 +18°C° 0 mm 1 mps 753 mmHg 76%
    05:00 +19°C° 0 mm 1 mps 753 mmHg 73%
    06:00 +20°C° 0 mm 1 mps 753 mmHg 70%
    07:00 +21°C° 0 mm 1 mps 753 mmHg 67%
    08:00 +21°C° 0 mm 2 mps 753 mmHg 63%
    09:00 +23°C° 0 mm 2 mps 754 mmHg 59%
    10:00 +24°C° 0 mm 2 mps 754 mmHg 56%
    11:00 +25°C° 0.1 mm 2 mps 753 mmHg 54%
    12:00 +26°C° 0.1 mm 2 mps 753 mmHg 53%
    13:00 +26°C° 0.1 mm 2 mps 753 mmHg 52%
    14:00 +26°C° 0.1 mm 2 mps 753 mmHg 52%
    15:00 +26°C° 0.1 mm 2 mps 753 mmHg 53%
    16:00 +26°C° 0.1 mm 2 mps 753 mmHg 53%
    17:00 +25°C° 0 mm 2 mps 753 mmHg 59%
    18:00 +24°C° 0 mm 2 mps 753 mmHg 65%
    19:00 +21°C° 0 mm 2 mps 753 mmHg 71%
    20:00 +20°C° 0 mm 2 mps 753 mmHg 75%
    21:00 +19°C° 0 mm 2 mps 753 mmHg 78%
    22:00 +18°C° 0 mm 2 mps 754 mmHg 81%
    23:00 +18°C° 0 mm 2 mps 754 mmHg 76%

    30 June, Sunday

    Time Temperature Precipitation Wind Pressure Humidity
    00:00 +17°C° 0 mm 2 mps 754 mmHg 72%
    01:00 +18°C° 0 mm 1 mps 754 mmHg 67%
    02:00 +16°C° 0 mm 1 mps 754 mmHg 66%
    03:00 +16°C° 0 mm 1 mps 754 mmHg 64%
    04:00 +15°C° 0 mm 1 mps 754 mmHg 62%
    05:00 +18°C° 0 mm 1 mps 754 mmHg 60%
    06:00 +20°C° 0 mm 1 mps 754 mmHg 58%
    07:00 +21°C° 0 mm 1 mps 755 mmHg 55%
    08:00 +23°C° 0 mm 1 mps 755 mmHg 52%
    09:00 +24°C° 0 mm 2 mps 755 mmHg 48%
    10:00 +25°C° 0 mm 2 mps 755 mmHg 45%
    11:00 +26°C° 0 mm 2 mps 755 mmHg 44%
    12:00 +27°C° 0 mm 1 mps 754 mmHg 43%
    13:00 +28°C° 0 mm 1 mps 754 mmHg 42%
    14:00 +28°C° 0 mm 1 mps 754 mmHg 42%
    15:00 +28°C° 0 mm 1 mps 753 mmHg 42%
    16:00 +28°C° 0 mm 1 mps 753 mmHg 42%
    17:00 +27°C° 0 mm 1 mps 753 mmHg 48%
    18:00 +25°C° 0 mm 1 mps 753 mmHg 54%
    19:00 +24°C° 0 mm 1 mps 753 mmHg 59%
    20:00 +23°C° 0 mm 2 mps 753 mmHg 61%
    21:00 +21°C° 0 mm 2 mps 753 mmHg 63%
    22:00 +20°C° 0 mm 2 mps 753 mmHg 65%
    23:00 +19°C° 0 mm 2 mps 753 mmHg 67%
    Show more